P/L 153 DEB, 19245

Orbit data source: Space-Track

P/L 153 DEB, 19245 is space debris in LEO originally from a launch on Wed, 31 May 1967 UTC launched from the Air Force Western Test Range (AFWTR). Debris objects in space refer to the collection of defunct objects orbiting the Earth. Examples of debris include non-operational satellites, rocket bodies, and fragments generated from explosions, collisions, or faulty payload assembly.

Loading next visibility...
Identifier
19245, 1967-053K
Orbit
LEO
Country
Flag of USUS
Related business
Manufacturer
Unknown
Mission
Spacecraft
Bus & Motor
Unknown
Mass
Unknown
Launch date (UTC)
1967-05-31 (58 years ago)
Launch vehicle
Unknown
Launch site
Air Force Western Test Range (AFWTR)
Object type
Payload
Rocket body
Debris
Shape & HBR
Unknown shape, 0.1 m
Radar Cross Section
Small (<0.1 m²)

Expand to show TLE details & history
Last TLE update: 17 hours ago

TLE from 17 hours ago
0 P/L 153 DEB
1 19245U 67053K   25312.86758794  .00001324  00000-0  61754-3 0  9995
2 19245  69.9548 111.2856 0002075  22.9490 126.3394 14.22592036998961
Epoch: 2025-11-08T20:49Z
TLE epoch observation values (Epoch: 2025-11-08T20:49:19.598Z)
Latitude
28.71007°
Longitude
-80.80283°
Altitude
820.454 km
Speed
7.445 km/s
True Right ascension
18h 39m 16s
True Declination
28° 34' 00"
Sunlit
Object was in daylight at epoch
Visualization orbit readout
Latitude
Unknown
Longitude
Unknown
Altitude
Unknown
Speed
Unknown
Apparent Right ascension
Unknown
Apparent Declination
Unknown
Sunlit
N/A
Visualization observer readout
Local Sidereal Time
10:32:51
Azimuth
Unknown
Elevation
Unknown
Doppler factor
Unknown
Orbital elements
Apogee altitude
816.115 km
Perigee altitude
813.13 km
Semi-major axis
7,192.76 km
Eccentricity
0.00021
Inclination
69.9548°
RAAN
111.2856°
Arg. of periapsis
22.949°
True anomaly
126.35855°
Mean anomaly
126.3394°
Eccentric anomaly
126.34898°
Mean motion
3.55795 °/min
Orbital period
101.18 mins
BSTAR
0.00061754
Loading maneuver chart data...
Computing Atmospheric mass density...
Loading historical data...
Loading historical data...
Loading historical data...
Loading historical data...
Loading historical data...
Loading historical data...
Loading historical data...

Documentation

Showing up to 5 results
|